Location: Delta State University
(33.7460°N, 90.7320°W)
Time: 14:32:08
(UTC-05:00)

Iridium 13 - Visible Passes

Search period start: 29 March 2015 00:00
Search period end: 08 April 2015 00:00
Orbit: 776 x 779 km, 86.4° (Epoch: 29 March)

Date Brightness Start Highest point End Pass type
(mag) Time Alt. Az. Time Alt. Az. Time Alt. Az.
29 Mar 7.5 21:42:31 10° NNE 21:43:54 18° NNE 21:43:54 18° NNE visible
29 Mar 8.6 23:24:21 10° NW 23:24:24 10° NW 23:24:24 10° NW visible
30 Mar 7.5 21:09:47 10° NNE 21:10:51 14° NE 21:10:51 14° NE visible
30 Mar 8.0 22:49:49 10° NNW 22:51:20 18° NNW 22:51:20 18° NNW visible
31 Mar 7.2 22:15:55 10° N 22:18:18 27° NNW 22:18:18 27° NNW visible
01 Apr 6.7 21:42:25 10° N 21:45:18 33° NNE 21:45:18 33° NNE visible
02 Apr 6.7 21:09:19 10° NNE 21:12:18 26° NE 21:12:18 26° NE visible
02 Apr 7.8 22:50:25 10° NNW 22:52:48 20° WNW 22:52:48 20° WNW visible
03 Apr 7.2 20:36:56 10° NE 20:39:21 16° ENE 20:39:21 16° ENE visible
03 Apr 6.8 22:16:11 10° NNW 22:19:51 37° NW 22:19:51 37° NW visible
04 Apr 5.7 21:42:26 10° N 21:46:55 66° N 21:46:55 66° N visible
05 Apr 5.7 21:09:06 10° N 21:14:02 47° E 21:14:02 47° E visible
05 Apr 8.0 22:51:23 10° NW 22:54:29 15° W 22:54:33 15° W visible
06 Apr 6.5 20:36:13 10° NNE 20:40:23 25° E 20:41:11 24° E visible
06 Apr 7.1 22:16:37 10° NNW 22:21:08 30° W 22:21:42 29° W visible
07 Apr 7.3 20:04:26 10° NE 20:06:29 13° ENE 20:08:22 11° E visible
07 Apr 6.0 21:42:36 10° N 21:47:44 58° W 21:48:53 47° SW visible
